Regional Weather Roundup
Issued by NWS

Home | Current Version | Previous Version | Graphics & Text | Print | Product List | Glossary On
Versions: 1 2 3 4 5 6 7 8 9 10 11 12 13 14 15 16 17 18 19 20 21 22 23 24 25 26 27 28 29 30 31 32 33 34 35 36 37 38 39 40 41 42 43 44 45 46 47 48 49 50
000
ASUS43 KLOT 272212
RWRIL

ILLINOIS REGIONAL WEATHER ROUNDUP
NATIONAL WEATHER SERVICE CHICAGO/ROMEOVILLE IL
500 PM CDT THU AUG 27 2015

NOTE: "FAIR" INDICATES FEW OR NO CLOUDS BELOW 12,000 FEET WITH NO
SIGNIFICANT WEATHER AND/OR OBSTRUCTIONS TO VISIBILITY.

* THESE STATIONS ARE NOT UNDER NWS QUALITY CONTROL. THEY ALSO MAY NOT
  REPORT WEATHER SUCH AS PRECIPITATION OR FOG.

ILZ001-002-007-009-015-016-024-272300-
NORTHWEST ILLINOIS

CITY           SKY/WX    TMP DP  RH WIND       PRES   REMARKS
MOLINE         FAIR      73  57  57 SE10      30.08F
STERLING*      FAIR      75  57  53 CALM      30.09F
SAVANNA*       FAIR      74  55  50 SE9       30.10S
$$

ILZ003-004-008-010-011-017-018-272300-
NORTH CENTRAL ILLINOIS

CITY           SKY/WX    TMP DP  RH WIND       PRES   REMARKS
ROCKFORD       CLOUDY    72  56  57 S5        30.13F
FREEPORT*      FAIR      71  57  62 SE5       30.13F
ROCHELLE*      FAIR      71  57  61 SE5       30.13S
DE KALB*       FAIR      69  58  66 S5        30.15S
PERU*          FAIR      74  54  50 S6        30.12F
$$

ILZ005-006-012>014-019>023-272300-
NORTHEAST ILLINOIS

CITY           SKY/WX    TMP DP  RH WIND       PRES   REMARKS
CHICAGO-OHARE  FAIR      73  54  51 E14       30.13S
CHICAGO-MIDWAY FAIR      73  55  53 E12       30.13F
AURORA         FAIR      71  58  63 S5        30.14S
LANSING*       FAIR      72  55  56 SE5       30.14S
JOLIET*        FAIR      72  58  60 S3        30.14S
WAUKEGAN       FAIR      68  55  63 SE8       30.13F
DUPAGE AIRPORT FAIR      72  53  51 SE5       30.12F
KANKAKEE*      FAIR      72  59  62 CALM      30.14S
WHEELING       FAIR      71  52  50 E9        30.15S
MORRIS*        FAIR      71  60  68 E3        30.13S
ROMEOVILLE*    FAIR      71  54  55 S3        30.14S
NORTHERLY ISL    N/A     68  56  65 E7          N/A
$$

LMZ740>746-272300-
SOUTHERN LAKE MICHIGAN

STATION/POSITION SKY/WX   TEMP    WIND        PRES    VSBY  WAVE
                          AIR SEA DIR/SP/G                  HT/PER
                          (F)     (DEG/KT/KT) (MB)    (MI)  (FT/S)
SOUTHERN BUOY              65 68  180/  6/  8 1021.0F         1
WILMETTE HARBOR            65 57  270/  8/ 10   N/A           1/ 3
HARRISON CRIB              66      90/  7/  7   N/A
BURNHAM HARBOR             68      80/  5/  8   N/A
CALUMET HARBOR             67      50/  7/  9   N/A
BURNS HARBOR               67      30/  5/  6 1021.7S
MICHIGAN CITY              68     310/  5/  7   N/A
MICHIGAN CITY 6N           67 72   40/  2/  4   N/A           0
ST. JOSEPH                 67 71  340/  4/  6   N/A           1
$$

ILZ025>027-034>036-040-047-049-050-058-095>099-272300-
WEST-CENTRAL ILLINOIS

CITY           SKY/WX    TMP DP  RH WIND       PRES   REMARKS
QUINCY         FAIR      75  57  53 SE10      30.07F
GALESBURG*     FAIR      73  59  61 SE3       30.10F
MACOMB*        FAIR      74  57  54 SE6       30.11F
JACKSONVILLE*  FAIR      77  59  54 CALM      30.10F
PITTSFIELD*    FAIR      76  58  54 E5        30.10F
$$

ILZ028>032-037-038-041>044-048-051>054-059>061-272300-
CENTRAL ILLINOIS

CITY           SKY/WX    TMP DP  RH WIND       PRES   REMARKS
PONTIAC        FAIR      74  60  59 CALM      30.14S
BLOOMINGTON    FAIR      76  58  53 S8        30.14F
DECATUR        FAIR      78  57  48 CALM      30.13R
PEORIA         FAIR      75  57  53 SW3       30.12F
LACON*         FAIR      74  58  58 E5        30.11S
LINCOLN*       FAIR      78  54  43 S3        30.10F
SPRINGFIELD    FAIR      78  57  48 VRB3      30.11F
TAYLORVILLE    FAIR      75  55  50 CALM      30.12F
$$

ILZ033-039-045-046-055>057-062-063-272300-
EAST-CENTRAL ILLINOIS

CITY           SKY/WX    TMP DP  RH WIND       PRES   REMARKS
CHAMPAIGN      PTSUNNY   77  58  51 CALM      30.13S
RANTOUL*       FAIR      77  59  53 W3        30.13S
MATTOON        FAIR      77  57  50 S5        30.12R
PARIS*         PTSUNNY   78  60  53 CALM      30.12S
$$

ILZ079-100>102-272300-
SOUTHWEST ILLINOIS

CITY           SKY/WX    TMP DP  RH WIND       PRES   REMARKS
ALTON          CLOUDY    75  57  53 VRB6      30.12S
BELLEVILLE     FAIR      78  60  53 N3        30.10F
CAHOKIA*       FAIR      79  56  45 NE5       30.10F HX  80
SPARTA*        FAIR      75  59  57 CALM      30.13F
$$

ILZ064>066-069>071-074>076-080>082-084>086-088>090-092>094-272300-
SOUTH-CENTRAL ILLINOIS

CITY           SKY/WX    TMP DP  RH WIND       PRES   REMARKS
CARBONDALE     FAIR      79  55  43 CALM      30.11R
CAIRO*         FAIR      78  63  61 NE5       30.10S
EFFINGHAM*     FAIR      77  55  45 SW5       30.14R
MARION         PTSUNNY   79  59  50 N6        30.12R HX  80
MT. VERNON     FAIR      79  55  44 CALM      30.13R
CENTRALIA*     FAIR      76  59  53 NW3       30.12S
SALEM*         FAIR      79  58  48 CALM      30.13R HX  80
METROPOLIS*    FAIR      79  62  56 CALM      30.10S HX  80
$$

ILZ067-068-072-073-078-083-087-091-272300-
SOUTHEAST ILLINOIS

CITY           SKY/WX    TMP DP  RH WIND       PRES   REMARKS
LAWRENCEVILLE  CLOUDY    81  56  42 E6        30.10F HX  81
FLORA*         FAIR      79  55  43 SW3       30.12R
FAIRFIELD*     FAIR      78  61  56 CALM      30.11R
HARRISBURG*    FAIR      80  59  49 CALM      30.10S HX  80
ROBINSON*      FAIR      80  57  45 CALM      30.11F HX  80
CARMI*         FAIR      80  59  48 CALM      30.09F HX  81
$$

ABBREVIATIONS USED IN REMARKS
   TC - TEMPERATURE IN CELSIUS
  WCI - WIND CHILL INDEX
   HX - HEAT INDEX
  VSB - VISIBILITY
$$



USA.gov is the U.S. government's official web portal to all federal, state and local government web resources and services.